| time (UTC) | temp C | wind direction | speed KPH | gust KPH | rain 1hr cm | rain 24hr cm | rain mn cm | humidity % | barometer mb |
| 20260506211529 | 21 | 162 | 0.0 | 0.0 | 0.00 | 0.00 | 0.00 | 53 | 1005.7 |
| 20260506210023 | 20 | 190 | 1.6 | 0.0 | 0.00 | 0.00 | 0.00 | 52 | 1005.6 |
| 20260506204518 | 20 | 224 | 1.6 | 0.0 | 0.00 | 0.00 | 0.00 | 44 | 1005.6 |
| 20260506203020 | 20 | 171 | 0.0 | 0.0 | 0.00 | 0.00 | 0.00 | 40 | 1005.6 |
| 20260506201510 | 20 | 188 | 3.2 | 0.0 | 0.00 | 0.00 | 0.00 | 43 | 1005.8 |
| 20260506200005 | 20 | 171 | 3.2 | 0.0 | 0.00 | 0.00 | 0.00 | 43 | 1005.9 |
| 20260506194501 | 19 | 219 | 4.8 | 0.0 | 0.00 | 0.00 | 0.00 | 42 | 1006.1 |
| 20260506193059 | 19 | 197 | 3.2 | 0.0 | 0.00 | 0.00 | 0.00 | 41 | 1006.3 |
| 20260506191605 | 18 | 171 | 4.8 | 0.0 | 0.00 | 0.00 | 0.00 | 36 | 1006.3 |
| 20260506190048 | 18 | 227 | 9.7 | 0.0 | 0.00 | 0.00 | 0.00 | 37 | 1006.5 |
| 20260506184546 | 19 | 207 | 6.4 | 0.0 | 0.00 | 0.00 | 0.00 | 42 | 1006.5 |
| 20260506183039 | 20 | 194 | 6.4 | 0.0 | 0.00 | 0.00 | 0.00 | 55 | 1006.5 |
| 20260506181535 | 21 | 217 | 4.8 | 0.0 | 0.00 | 0.00 | 0.00 | 61 | 1006.8 |
| 20260506180030 | 21 | 148 | 1.6 | 0.0 | 0.00 | 0.00 | 0.00 | 60 | 1006.6 |
| 20260506174526 | 21 | 217 | 1.6 | 0.0 | 0.00 | 0.00 | 0.00 | 60 | 1006.8 |
| 20260506173022 | 21 | 162 | 3.2 | 0.0 | 0.00 | 0.00 | 0.00 | 58 | 1006.9 |
| 20260506171521 | 21 | 184 | 1.6 | 0.0 | 0.00 | 0.00 | 0.00 | 59 | 1007.1 |
| 20260506170012 | 21 | 195 | 1.6 | 0.0 | 0.00 | 0.00 | 0.00 | 63 | 1007.3 |
| 20260506164509 | 22 | 114 | 1.6 | 0.0 | 0.00 | 0.00 | 0.00 | 63 | 1007.8 |
| 20260506163008 | 22 | 221 | 1.6 | 0.0 | 0.00 | 0.00 | 0.00 | 62 | 1008.3 |
| 20260506161600 | 22 | 167 | 4.8 | 0.0 | 0.00 | 0.00 | 0.00 | 61 | 1008.5 |
| 20260506160056 | 22 | 225 | 4.8 | 0.0 | 0.00 | 0.00 | 0.00 | 59 | 1008.3 |
| 20260506154552 | 23 | 165 | 4.8 | 0.0 | 0.00 | 0.00 | 0.00 | 56 | 1008.3 |
| 20260506153046 | 23 | 204 | 3.2 | 0.0 | 0.00 | 0.00 | 0.00 | 58 | 1008.2 |
| 20260506151546 | 22 | 222 | 3.2 | 0.0 | 0.00 | 0.00 | 0.00 | 60 | 1008.3 |
| 20260506150038 | 22 | 235 | 8.0 | 0.0 | 0.00 | 0.00 | 0.00 | 57 | 1008.6 |
| 20260506144549 | 23 | 129 | 6.4 | 0.0 | 0.00 | 0.00 | 0.00 | 57 | 1008.5 |
| 20260506143031 | 22 | 248 | 4.8 | 0.0 | 0.00 | 0.00 | 0.00 | 58 | 1008.5 |
| 20260506141532 | 22 | 220 | 8.0 | 0.0 | 0.00 | 0.00 | 0.00 | 59 | 1008.4 |
| 20260506140022 | 22 | 180 | 9.7 | 0.0 | 0.00 | 0.00 | 0.00 | 60 | 1008.4 |
| 20260506134516 | 22 | 198 | 4.8 | 0.0 | 0.00 | 0.00 | 0.00 | 61 | 1008.6 |
| 20260506133016 | 22 | 148 | 8.0 | 0.0 | 0.00 | 0.00 | 0.00 | 62 | 1008.8 |
| 20260506131508 | 22 | 209 | 6.4 | 0.0 | 0.00 | 0.00 | 0.00 | 62 | 1009.2 |
| 20260506130003 | 21 | 221 | 4.8 | 0.0 | 0.00 | 0.00 | 0.00 | 61 | 1009.0 |
| 20260506124559 | 20 | 126 | 4.8 | 0.0 | 0.00 | 0.00 | 0.00 | 57 | 1009.1 |
| 20260506123055 | 18 | 157 | 3.2 | 0.0 | 0.00 | 0.00 | 0.00 | 54 | 1009.1 |
| 20260506121550 | 18 | 237 | 3.2 | 0.0 | 0.00 | 0.00 | 0.00 | 45 | 1009.2 |
| 20260506120046 | 18 | 131 | 3.2 | 0.0 | 0.00 | 0.00 | 0.00 | 43 | 1009.1 |
| 20260506114541 | 17 | 215 | 3.2 | 0.0 | 0.00 | 0.00 | 0.00 | 29 | 1009.2 |
| 20260506113038 | 16 | 201 | 3.2 | 0.0 | 0.00 | 0.00 | 0.00 | 5 | 1009.4 |
| 20260506111533 | 15 | 140 | 3.2 | 0.0 | 0.00 | 0.00 | 0.00 | 100 | 1009.4 |
| 20260506110029 | 14 | 149 | 1.6 | 0.0 | 0.00 | 0.00 | 0.00 | 100 | 1009.4 |
| 20260506104527 | 14 | 189 | 3.2 | 0.0 | 0.00 | 0.00 | 0.00 | 100 | 1009.2 |
| 20260506103023 | 13 | 188 | 3.2 | 0.0 | 0.00 | 0.00 | 0.00 | 100 | 1009.3 |
| 20260506101516 | 13 | 175 | 0.0 | 0.0 | 0.00 | 0.00 | 0.00 | 100 | 1009.1 |
| 20260506100012 | 14 | 123 | 1.6 | 0.0 | 0.00 | 0.00 | 0.00 | 100 | 1009.0 |
| 20260506094506 | 14 | 187 | 1.6 | 0.0 | 0.00 | 0.00 | 0.00 | 100 | 1009.1 |
| 20260506093002 | 14 | 187 | 1.6 | 0.0 | 0.00 | 0.00 | 0.00 | 100 | 1009.1 |
| 20260506091559 | 14 | 248 | 3.2 | 0.0 | 0.00 | 0.00 | 0.00 | 100 | 1009.1 |
| 20260506090053 | 14 | 144 | 3.2 | 0.0 | 0.00 | 0.00 | 0.00 | 100 | 1009.3 |
| 20260506084555 | 15 | 231 | 1.6 | 0.0 | 0.00 | 0.00 | 0.00 | 100 | 1009.3 |
| 20260506083051 | 15 | 196 | 1.6 | 0.0 | 0.00 | 0.00 | 0.00 | 100 | 1009.4 |
| 20260506081541 | 15 | 181 | 1.6 | 0.0 | 0.00 | 0.00 | 0.00 | 100 | 1009.6 |
| 20260506073031 | 16 | 213 | 3.2 | 0.0 | 0.00 | 0.00 | 0.00 | 15 | 1009.6 |
| 20260506071529 | 16 | 199 | 1.6 | 0.0 | 0.00 | 0.00 | 0.00 | 21 | 1009.6 |
| 20260506061526 | 17 | 211 | 1.6 | 0.0 | 0.00 | 0.00 | 0.00 | 31 | 1009.5 |
| 20260506044511 | 17 | 173 | 1.6 | 0.0 | 0.00 | 0.00 | 0.00 | 48 | 1010.1 |
| 20260506043008 | 17 | 169 | 3.2 | 0.0 | 0.00 | 0.00 | 0.00 | 51 | 1010.1 |
| 20260506041505 | 17 | 184 | 1.6 | 0.0 | 0.00 | 0.00 | 0.00 | 55 | 1010.0 |
| 20260506040006 | 18 | 178 | 1.6 | 0.0 | 0.00 | 0.00 | 0.00 | 57 | 1009.9 |
| 20260506034604 | 18 | 158 | 3.2 | 0.0 | 0.00 | 0.00 | 0.00 | 58 | 1010.0 |
| 20260506033109 | 18 | 171 | 3.2 | 0.0 | 0.00 | 0.00 | 0.00 | 59 | 1010.1 |
| 20260506031552 | 18 | 204 | 1.6 | 0.0 | 0.00 | 0.00 | 0.00 | 60 | 1010.0 |
| 20260506030057 | 18 | 170 | 3.2 | 0.0 | 0.00 | 0.00 | 0.00 | 61 | 1010.1 |
| 20260506024544 | 18 | 197 | 1.6 | 0.0 | 0.00 | 0.00 | 0.00 | 61 | 1010.1 |
| 20260506023037 | 18 | 206 | 4.8 | 0.0 | 0.00 | 0.00 | 0.00 | 62 | 1010.2 |
| 20260506021539 | 18 | 204 | 3.2 | 0.0 | 0.00 | 0.00 | 0.00 | 62 | 1010.3 |
| 20260506020028 | 18 | 142 | 4.8 | 0.0 | 0.00 | 0.00 | 0.00 | 63 | 1010.3 |
| 20260506014524 | 19 | 143 | 3.2 | 0.0 | 0.00 | 0.00 | 0.00 | 64 | 1010.1 |
| 20260506013019 | 19 | 202 | 3.2 | 0.0 | 0.00 | 0.00 | 0.00 | 64 | 1010.1 |
| 20260506011535 | 19 | 189 | 3.2 | 0.0 | 0.00 | 0.00 | 0.00 | 63 | 1010.0 |
| 20260506010011 | 20 | 171 | 4.8 | 0.0 | 0.00 | 0.00 | 0.00 | 63 | 1009.6 |
| 20260506004520 | 20 | 200 | 4.8 | 0.0 | 0.00 | 0.00 | 0.00 | 62 | 1009.6 |
| 20260506003002 | 20 | 225 | 3.2 | 0.0 | 0.00 | 0.00 | 0.00 | 61 | 1009.5 |
| 20260506001601 | 20 | 188 | 1.6 | 0.0 | 0.00 | 0.00 | 0.00 | 61 | 1009.4 |
| 20260506000059 | 21 | 185 | 4.8 | 0.0 | 0.00 | 0.00 | 0.00 | 59 | 1009.2 |
| 20260505234549 | 21 | 170 | 6.4 | 0.0 | 0.00 | 0.00 | 0.00 | 58 | 1009.1 |
| 20260505233045 | 21 | 223 | 6.4 | 0.0 | 0.00 | 0.00 | 0.00 | 56 | 1009.0 |
| 20260505231543 | 22 | 136 | 4.8 | 0.0 | 0.00 | 0.00 | 0.00 | 54 | 1008.6 |
| 20260505230036 | 22 | 148 | 3.2 | 0.0 | 0.00 | 0.00 | 0.00 | 53 | 1008.5 |
| 20260505224532 | 23 | 173 | 4.8 | 0.0 | 0.00 | 0.00 | 0.00 | 52 | 1008.4 |
| 20260505223027 | 23 | 220 | 4.8 | 0.0 | 0.00 | 0.00 | 0.00 | 51 | 1008.3 |
| 20260505221523 | 24 | 157 | 4.8 | 0.0 | 0.00 | 0.00 | 0.00 | 48 | 1008.1 |
| 20260505220041 | 25 | 146 | 4.8 | 0.0 | 0.00 | 0.00 | 0.00 | 47 | 1007.9 |
| 20260505214525 | 25 | 194 | 4.8 | 0.0 | 0.00 | 0.00 | 0.00 | 47 | 1007.7 |
| 20260505213018 | 26 | 134 | 4.8 | 0.0 | 0.00 | 0.00 | 0.00 | 45 | 1007.7 |